SCP
0 0 0 0 0 0 0 1 1 1 1 1 2 2 2 2 2 2 2 3 3 2 2 3 3 2 2 2 1 1 1 1 1 1 1 1 0 0 0 0 0 0 0
0 0 0 0 0 0 0 0 1 1 1 1 1 2 2 2 2 2 3 3 3 2 2 2 2 3 2 2 2 1 1 1 1 1 1 1 1 0 0 0 0 0 0
0 0 0 0 0 0 0 0 1 1 1 1 1 1 2 2 2 2 3 3 3 2 2 2 2 3 3 2 2 1 1 1 1 1 1 1 1 1 1 0 0 1 1
0 0 0 0 0 0 0 0 1 1 1 1 1 1 1 1 2 2 2 2 2 3 3 3 3 3 3 2 2 2 2 1 2 2 2 1 1 1 1 1 0 1 1
0 0 0 0 0 0 0 1 1 1 1 1 1 1 1 1 1 2 2 2 3 3 3 3 3 3 3 3 2 2 2 2 2 2 2 2 1 1 1 1 1 1 1
0 0 0 0 0 0 0 0 1 1 1 1 1 1 1 1 1 1 2 2 3 3 3 3 3 3 3 3 3 2 2 2 2 2 2 2 2 1 1 1 1 1 1
0 0 0 0 0 0 0 0 0 0 1 1 1 1 1 1 1 1 2 2 2 3 3 3 3 3 3 3 3 2 2 2 1 1 1 2 2 2 2 1 1 1 1
0 0 0 0 0 0 0 0 0 0 0 0 0 0 1 1 1 1 1 2 2 2 2 2 3 3 3 3 3 2 2 2 1 1 1 2 2 2 2 2 2 1 1
0 0 0 0 0 0 0 0 0 0 0 0 0 0 1 1 1 1 1 1 1 1 2 2 2 2 3 3 3 3 2 2 1 1 1 1 2 2 2 2 2 2 1
0 0 0 0 0 0 0 0 0 0 0 0 0 0 0 0 1 1 1 1 1 1 2 2 2 2 2 2 3 3 2 2 1 1 1 1 2 2 2 2 2 2 1
0 0 0 0 0 0 0 0 0 0 0 0 0 0 0 0 0 0 1 1 1 1 1 2 2 2 1 2 2 2 2 2 1 1 1 1 1 2 2 2 2 2 1
0 0 0 0 0 0 0 0 0 0 0 0 0 0 0 0 0 0 0 1 1 1 1 1 2 1 1 1 2 2 2 1 1 1 1 1 1 1 1 1 1 1 1
0 0 0 0 0 0 0 0 0 0 0 0 0 0 0 0 0 0 0 0 1 1 1 1 1 1 1 1 1 1 1 1 1 1 1 1 1 1 1 1 1 1 1
0 0 0 0 0 0 0 0 0 0 0 0 0 0 0 0 0 0 0 0 0 1 1 1 1 1 1 1 1 1 1 1 0 0 1 0 1 1 1 1 1 1 1
0 0 0 0 0 0 0 0 0 0 0 0 0 0 0 0 0 0 0 0 0 0 0 0 1 0 0 0 1 1 1 0 0 0 0 0 0 1 1 1 1 1 0
0 0 0 0 0 0 0 0 0 0 0 0 0 0 0 0 0 0 0 0 0 0 0 0 0 0 0 0 0 0 0 0 0 0 0 0 0 0 0 0 0 0 0
0 0 0 0 0 0 0 0 0 0 0 0 0 0 0 0 0 0 0 0 0 0 0 0 0 0 0 0 0 0 0 0 0 0 0 0 0 0 0 0 0 0 0
0 0 0 0 0 0 0 0 0 0 0 0 0 0 0 0 0 0 0 0 0 0 0 0 0 0 0 0 0 0 0 0 0 0 0 0 0 0 0 0 0 0 0
0 0 0 0 0 0 0 0 0 0 0 0 0 0 0 0 0 0 0 0 0 0 0 0 0 0 0 0 0 0 0 0 0 0 0 0 0 0 0 0 0 0 0
0 0 0 0 0 0 0 0 0 0 0 0 0 0 0 0 0 0 0 0 0 0 0 0 0 0 0 0 0 0 0 0 0 0 0 0 0 0 0 0 0 0 0
0 0 0 0 0 0 0 0 0 0 0 0 0 0 0 0 0 0 0 0 0 0 0 0 0 0 0 0 0 0 0 0 0 0 0 0 0 0 0 0 0 0 0
0 0 0 0 0 0 0 0 0 0 0 0 0 0 0 0 0 0 0 0 0 0 0 0 0 0 0 0 0 0 0 0 0 0 0 0 0 0 0 0 0 0 0
0 0 0 0 0 0 0 0 0 0 0 0 0 0 0 0 0 0 0 0 0 0 0 0 0 0 0 0 0 0 0 0 0 0 0 0 0 0 0 0 0 0 0
0 0 0 0 0 0 0 0 0 0 0 0 0 0 0 0 0 0 0 0 0 0 0 0 0 0 0 0 0 0 0 0 0 0 0 0 0 0 0 0 0 0 0
0 0 0 0 0 0 0 0 0 0 0 0 0 0 0 0 0 0 0 0 0 0 0 0 0 0 0 0 0 0 0 0 0 0 0 0 0 0 0 0 0 0 0
0 0 0 0 0 0 0 0 0 0 0 0 0 0 0 0 0 0 0 0 0 0 0 0 0 0 0 0 0 0 0 0 0 0 0 0 0 0 0 0 0 0 0
Wind_Speed
13 13 13 12 12 12 12 11 11 10 8 6 6 5 5 5 5 5 8 9 9 9 9 7 8 7 7 8 9 7 8 7 6 6 5 6 8 7 6 6 6 6 6
14 14 13 13 13 13 13 12 11 10 9 6 6 5 6 5 5 5 6 7 8 8 8 9 8 8 7 9 9 8 6 6 6 6 4 5 6 6 7 7 6 7 6
15 14 14 13 13 13 13 11 12 10 9 8 6 5 4 4 4 4 4 5 6 7 8 9 8 8 8 7 8 9 9 6 6 6 5 4 5 3 5 8 7 7 5
14 14 14 14 14 13 13 12 12 11 10 8 6 7 5 5 5 4 4 5 5 6 6 8 8 8 6 7 8 9 7 7 6 5 6 6 3 3 3 5 6 7 7
14 14 14 14 14 13 12 12 12 11 10 9 8 7 6 6 5 4 4 4 3 4 4 5 6 6 6 6 7 8 9 7 7 6 5 6 4 6 4 4 4 5 6
13 13 13 13 13 13 12 12 12 11 11 10 9 8 8 7 6 5 4 3 2 2 3 4 4 5 5 7 7 7 8 7 8 7 6 5 5 5 5 5 4 4 4
12 12 13 13 13 14 13 12 12 11 11 10 9 9 9 7 6 6 4 3 2 1 2 3 4 4 5 6 6 7 7 8 9 8 6 5 5 3 3 4 4 4 3
11 11 12 12 12 13 13 13 12 12 12 11 10 9 9 6 5 6 5 4 3 2 2 2 2 3 4 5 5 5 6 7 8 8 7 5 5 5 4 4 3 4 3
10 11 11 12 12 12 12 12 12 11 12 11 10 9 9 8 7 7 6 4 4 3 2 0 1 2 3 4 4 4 5 5 6 6 7 5 5 5 5 4 4 4 4
10 11 11 11 11 10 10 11 11 11 11 11 10 8 9 9 8 7 7 6 5 4 3 1 1 1 1 2 3 3 3 5 5 4 6 5 4 4 4 4 4 4 4
9 9 9 10 10 10 10 10 11 11 11 11 11 10 10 10 9 8 8 7 6 6 4 4 2 2 2 1 2 2 3 3 3 4 4 4 4 4 3 4 4 4 3
8 8 8 9 10 10 10 10 10 11 10 10 10 10 10 10 10 10 10 9 8 7 7 5 5 4 3 2 1 1 2 2 3 3 3 3 3 3 3 3 4 3 4
8 8 8 8 9 9 10 10 10 10 10 10 10 10 11 11 10 10 10 9 9 8 7 7 7 6 5 4 3 2 2 1 1 2 3 3 3 2 2 4 3 3 3
7 7 7 7 8 8 9 9 10 9 9 10 10 10 10 10 10 10 10 10 9 9 8 8 7 7 6 6 4 3 2 2 2 3 3 3 3 2 2 2 3 3 3
7 8 7 8 8 8 9 9 9 9 9 9 10 10 10 10 10 10 10 10 9 9 8 8 8 8 6 7 6 3 3 3 4 3 3 4 4 4 2 1 2 3 3
7 7 7 7 7 8 7 8 8 8 8 9 9 9 9 10 10 10 10 10 10 9 9 9 9 9 7 9 9 5 4 4 4 4 4 4 4 5 5 5 4 2 2
5 6 7 7 7 7 7 7 8 8 8 9 9 9 9 10 10 10 10 10 9 10 10 10 9 9 10 10 9 8 4 5 5 5 4 4 4 3 5 7 7 6 6
4 5 6 6 6 6 6 6 6 7 8 9 9 9 9 9 9 9 9 9 8 8 8 9 9 9 11 12 10 6 5 6 6 6 5 5 4 4 3 5 6 7 7
3 4 5 5 5 5 5 5 6 7 8 8 8 8 8 9 9 9 9 8 8 8 8 8 9 9 11 13 11 7 5 6 7 7 7 6 6 6 2 5 8 8 8
2 3 3 4 4 4 4 4 5 6 7 7 7 7 7 8 8 8 8 7 7 7 7 8 9 10 10 13 13 9 5 6 6 6 7 9 7 5 4 4 6 7 7
1 2 3 3 3 3 3 3 4 6 5 5 5 6 6 7 7 7 7 7 7 7 7 8 8 9 10 11 13 12 5 5 5 5 5 6 8 8 7 5 6 6 5
1 2 2 2 2 2 2 2 3 3 3 3 4 5 6 6 5 6 6 7 7 7 7 7 8 7 8 10 11 12 11 7 6 5 5 6 9 10 9 7 8 6 3
2 1 2 1 1 1 2 2 2 2 1 2 3 3 4 5 5 6 6 6 6 6 6 6 6 6 6 7 9 10 10 9 6 6 9 8 7 7 8 9 5 3 3
3 2 2 1 1 1 0 1 1 2 1 1 2 2 2 3 4 4 5 5 6 6 6 6 6 5 6 7 6 5 5 5 5 6 7 7 7 6 6 5 4 4 4
4 3 2 1 0 0 0 1 1 2 2 1 1 1 2 2 2 3 4 5 5 6 5 5 5 6 6 8 9 7 5 4 4 2 3 4 4 5 5 5 5 4 4
5 4 3 2 1 1 1 2 2 3 2 1 1 1 1 1 0 1 2 3 2 4 4 6 6 5 6 6 7 8 7 6 4 1 4 4 4 4 4 4 4 4 4
Wind_Direction
1 1 357 354 351 349 347 342 338 335 330 322 315 308 300 290 275 265 262 252 244 238 230 231 231 224 219 219 219 216 216 221 223 229 230 229 230 230 213 227 229 218 210
357 358 355 354 349 348 347 342 339 337 331 323 312 297 296 290 288 278 265 255 247 241 233 228 227 223 221 220 220 219 219 217 215 220 220 231 224 224 227 220 229 234 209
353 353 352 351 348 348 345 339 336 333 332 327 316 309 296 283 279 277 272 263 249 239 231 226 225 223 217 216 215 215 215 213 215 223 212 219 226 208 215 220 223 232 230
355 354 351 351 350 348 345 341 340 337 336 332 329 320 310 303 301 296 281 274 258 241 232 229 225 224 217 214 214 214 212 211 212 219 228 237 242 216 213 210 218 221 229
358 357 356 353 353 351 349 346 346 345 346 344 339 328 322 314 309 301 287 282 272 244 226 226 220 216 212 215 218 216 212 212 215 211 212 224 231 240 237 224 211 214 221
360 359 358 356 357 357 355 353 350 351 350 347 347 345 338 331 329 325 311 295 284 252 222 219 213 210 209 213 216 218 215 216 222 220 214 210 211 217 221 231 225 225 220
1 360 359 359 359 359 358 357 354 354 353 352 355 353 350 341 338 335 322 309 303 288 251 227 213 203 204 209 209 212 214 215 220 221 220 219 220 210 211 227 234 232 218
2 1 1 0 357 357 358 359 359 357 358 359 358 358 359 352 351 347 339 332 332 326 308 238 211 201 199 204 204 209 214 213 217 219 218 217 221 214 209 217 220 229 225
5 4 2 2 360 359 358 359 0 360 1 3 3 7 4 2 1 357 354 357 360 357 354 324 201 193 193 198 198 206 207 209 212 216 216 215 214 214 219 220 218 219 223
4 5 4 3 1 0 358 2 3 3 6 5 6 8 8 9 9 8 11 12 12 12 13 42 65 123 161 179 182 191 197 201 203 206 211 208 209 209 209 213 218 221 227
360 2 4 2 2 6 6 7 7 8 9 8 9 12 14 14 16 18 17 17 20 19 25 35 51 71 86 126 163 181 183 197 195 195 200 202 197 191 194 200 206 211 212
358 1 5 5 6 9 9 12 10 11 9 8 11 15 16 20 20 21 21 23 27 29 32 37 48 56 59 63 91 125 161 176 177 180 187 190 180 182 186 193 198 196 201
1 4 8 7 7 10 11 13 14 12 10 11 15 18 20 21 20 21 23 26 28 31 36 39 39 41 44 45 52 73 94 105 143 158 159 160 155 166 179 193 190 185 185
5 8 7 9 11 12 14 13 14 13 12 16 18 20 19 17 18 22 26 28 30 33 33 36 37 36 38 39 38 51 72 87 97 108 124 134 135 140 154 170 169 162 158
10 10 10 11 12 16 15 16 15 15 15 21 23 21 20 21 21 25 28 32 31 31 35 38 40 38 35 31 22 38 69 82 84 90 98 90 85 70 81 111 142 157 157
7 7 10 10 11 15 13 15 17 18 19 26 25 21 22 24 24 26 30 32 32 32 35 38 39 37 35 29 28 21 66 75 76 72 77 96 105 104 102 86 75 58 122
358 1 4 7 10 15 11 16 18 20 25 30 29 23 24 26 25 29 32 30 31 32 33 35 35 39 37 33 40 37 61 69 70 69 71 73 79 91 108 118 127 95 65
353 0 358 3 4 10 11 17 25 26 30 30 29 27 24 27 28 29 29 29 32 33 35 34 33 39 38 35 35 29 73 75 72 69 68 73 77 65 82 115 107 94 79
344 345 342 344 351 5 5 8 27 33 35 32 28 26 25 27 28 29 26 25 30 33 36 39 37 39 39 32 27 20 76 78 74 68 61 61 74 55 25 114 112 105 93
325 331 327 337 355 6 356 7 28 33 36 32 30 30 28 28 29 29 25 27 32 35 39 43 41 40 38 32 26 14 69 80 79 74 69 58 61 57 2 115 113 111 110
296 312 323 340 354 351 341 14 37 42 40 36 37 36 33 35 30 30 28 30 36 39 43 48 47 46 41 38 33 22 43 66 75 70 64 60 60 55 35 41 84 91 108
228 305 321 348 356 348 334 30 51 58 61 54 50 44 37 33 31 35 33 34 36 41 43 44 47 44 46 41 40 41 39 34 70 64 63 69 68 65 54 62 79 88 104
203 264 300 317 31 22 338 27 89 104 108 89 73 57 54 48 35 32 35 36 37 37 36 38 39 39 38 48 53 56 55 44 60 67 67 71 73 87 80 73 77 108 109
200 224 262 283 83 72 30 31 112 170 175 124 91 82 61 57 51 32 28 30 28 30 32 31 31 34 39 29 23 38 69 86 86 91 99 96 77 81 89 99 87 76 70
191 212 242 269 264 200 188 146 179 205 200 172 148 118 86 55 41 46 28 21 39 25 11 20 21 22 31 23 10 12 32 36 49 61 90 84 83 79 79 79 75 80 93
191 202 217 231 224 221 207 170 188 224 231 200 179 171 158 130 43 47 99 98 53 56 36 20 7 50 46 25 32 42 43 35 0 36 83 75 70 68 69 76 82 78 77